Regional Weather Roundup
Issued by NWS

Home | Current Version | Previous Version | Text Only | Print | Product List | Glossary Off
Versions: 1 2 3 4 5 6 7 8 9 10 11 12 13 14 15 16 17 18 19 20 21 22 23 24 25 26 27 28 29 30 31 32 33 34 35 36 37 38 39 40 41 42 43 44 45 46 47 48 49 50

000
ASUS43 KBIS 200802
RWRND

NORTH DAKOTA REGIONAL WEATHER ROUNDUP
NATIONAL WEATHER SERVICE BISMARCK ND
300 AM CDT THU JUL 20 2017

NOTE: "FAIR" INDICATES FEW OR NO CLOUDS BELOW 12,000 FEET WITH NO
SIGNIFICANT WEATHER AND/OR OBSTRUCTIONS TO VISIBILITY.


NDZ001>003-009>011-017-200900-
NORTHWEST NORTH DAKOTA

CITY           SKY/WX    TMP DP  RH WIND       PRES   REMARKS
WILLISTON        N/A    N/A N/A N/A MISG      29.96S
MINOT          MOCLDY    66  58  75 E5        29.98F
MINOT AFB      MOCLDY    62  59  90 SE3       29.97F
$$

NDZ018>021-031>035-040>046-200900-
SOUTHWEST NORTH DAKOTA

CITY           SKY/WX    TMP DP  RH WIND       PRES   REMARKS
BISMARCK       CLEAR     65  62  90 E3        29.98F
DICKINSON      CLOUDY    65  58  78 S10       29.99S
GARRISON         N/A     65  61  87 NE8       29.99R
HETTINGER ARPT MOCLDY    66  56  70 SE5       30.04F
$$

NDZ004>008-012>016-024-026-027-054-200900-
NORTHEAST NORTH DAKOTA

CITY           SKY/WX    TMP DP  RH WIND       PRES   REMARKS
GRAND FORKS    CLEAR     61  61 100 W5        29.94S
GRND FRKS AFB  CLEAR     61  61 100 NW6       29.95S
DEVILS LAKE    FOG       59  58  96 CALM      30.00R VSB 1/4
$$

NDZ022-023-025-028>030-036>039-047>053-200900-
SOUTHEAST NORTH DAKOTA

CITY           SKY/WX    TMP DP  RH WIND       PRES   REMARKS
FARGO          CLEAR     64  64 100 CALM      29.93F FOG
JAMESTOWN      CLEAR     63  61  93 N6        29.98S
$$





USA.gov is the U.S. government's official web portal to all federal, state and local government web resources and services.